Grande Prairie Airport
CYQU : now visible

Airfield :











YOU CAN JOIN US ON...

 
LOGIN :

Register | Disclaimer

   EN    FR    IT 

 









Legend :    VFR   Marginal VFR   IFR   Intensive IFR   Very Intensive IFR
Visi :
Ceiling :
>= 8 km
>= 3000ft
5 to 8 km
1000 to 3000 ft
1500m to 5 km
500 to 1000 ft
800 to 1500m
200 to 500 ft
< 800m
< 200 ft
Symbols :   Thunderstorms  Fog  Heavy snow  Heavy precipitations  Wind > 20 kt






- Airport Elevation : 2195 ft
- IATA code : YQU


CYQU - Grande Prairie

CURRENT METAR :
  • 081500Z 02003KT 20SM BKN050 OVC080 M06/M08 A2997 RMK SC6AC2 SLP188

EXPIRED METARs :
  • 081400Z 34005KT 25SM SCT055 BKN100 M06/M09 A2998 RMK SC3AC4 SLP190
  • 081300Z 35005KT 25SM BKN160 M07/M09 A2998 RMK AC6 SLP190

TAF TAF CYQU
Valid from the 08 at 13:00 until the 09 at 01:00 UTC


081239Z 0813/0901 VRB03KT P6SM SCT030 BKN060
TEMPO 0813/0901 3SM -SHSN BKN030 OVC060
BECMG 0817/0819 04008KT RMK NXT FCST BY 081900Z
CZEG FIR / North America



MET'MAP, your aeronautical weather chart ! - Copyright ORBIFLY December 2007 - Disclaimer

ORBIFLY MET'MAP TEAM :

Programming & Development : Alexandra Zaïnal
Concept & original design : Baudouin d'Aumeries
Assistance for programming : Marc-Olivier Méhu
Technical & hardware support : Manuel Goepfert

Contact : metmap@orbifly.com




SOURCES & CREDITS :

   NOAA       Earth
Advisory